EN

Hourly Weather Dzierzawy

Today, 28 October, Wednesday

Time Temperature Precipitation Wind Pressure Humidity
00:00 +9°C° 0 mm 2 mps 751 mmHg 86%
01:00 +9°C° 0 mm 2 mps 751 mmHg 86%
02:00 +9°C° 0 mm 2 mps 751 mmHg 86%
03:00 +8°C° 0 mm 2 mps 750 mmHg 86%
04:00 +8°C° 0 mm 2 mps 750 mmHg 87%
05:00 +8°C° 0 mm 2 mps 750 mmHg 85%
06:00 +8°C° 0 mm 2 mps 751 mmHg 83%
07:00 +8°C° 0 mm 2 mps 751 mmHg 82%
08:00 +10°C° 0 mm 3 mps 751 mmHg 77%
09:00 +11°C° 0 mm 3 mps 751 mmHg 72%
10:00 +13°C° 0 mm 4 mps 751 mmHg 67%
11:00 +13°C° 0 mm 4 mps 751 mmHg 64%
12:00 +14°C° 0 mm 4 mps 750 mmHg 60%
13:00 +15°C° 0 mm 5 mps 750 mmHg 56%
14:00 +14°C° 0 mm 4 mps 750 mmHg 57%
15:00 +14°C° 0 mm 4 mps 750 mmHg 58%
16:00 +13°C° 0 mm 3 mps 750 mmHg 60%
17:00 +12°C° 0 mm 3 mps 751 mmHg 60%
18:00 +12°C° 0 mm 4 mps 751 mmHg 61%
19:00 +11°C° 0 mm 4 mps 751 mmHg 62%
20:00 +11°C° 0 mm 4 mps 751 mmHg 66%
21:00 +11°C° 0 mm 4 mps 751 mmHg 69%
22:00 +10°C° 0 mm 4 mps 751 mmHg 73%
23:00 +10°C° 0 mm 4 mps 752 mmHg 75%

Tomorrow, 29 October, Thursday

Time Temperature Precipitation Wind Pressure Humidity
00:00 +8°C° 0 mm 4 mps 752 mmHg 77%
01:00 +8°C° 0 mm 4 mps 752 mmHg 80%
02:00 +8°C° 0 mm 4 mps 752 mmHg 81%
03:00 +8°C° 0 mm 4 mps 752 mmHg 82%
04:00 +8°C° 0 mm 4 mps 751 mmHg 83%
05:00 +7°C° 0 mm 4 mps 751 mmHg 84%
06:00 +7°C° 0 mm 4 mps 752 mmHg 85%
07:00 +7°C° 0 mm 4 mps 752 mmHg 85%
08:00 +8°C° 0 mm 4 mps 752 mmHg 80%
09:00 +9°C° 0 mm 5 mps 751 mmHg 75%
10:00 +10°C° 0 mm 5 mps 751 mmHg 70%
11:00 +10°C° 0 mm 5 mps 751 mmHg 70%
12:00 +12°C° 0 mm 5 mps 751 mmHg 70%
13:00 +12°C° 0 mm 5 mps 750 mmHg 70%
14:00 +10°C° 0.6 mm 5 mps 750 mmHg 75%
15:00 +10°C° 0.6 mm 5 mps 751 mmHg 81%
16:00 +9°C° 0.6 mm 5 mps 751 mmHg 86%
17:00 +9°C° 0.6 mm 5 mps 751 mmHg 85%
18:00 +8°C° 0.6 mm 5 mps 751 mmHg 83%
19:00 +8°C° 0.6 mm 5 mps 752 mmHg 82%
20:00 +7°C° 0 mm 5 mps 752 mmHg 82%
21:00 +7°C° 0 mm 5 mps 753 mmHg 83%
22:00 +6°C° 0 mm 5 mps 753 mmHg 84%
23:00 +6°C° 0 mm 5 mps 754 mmHg 85%

Day after tomorrow, 30 October, Friday

Time Temperature Precipitation Wind Pressure Humidity
00:00 +6°C° 0 mm 5 mps 754 mmHg 86%
01:00 +5°C° 0 mm 5 mps 754 mmHg 88%
02:00 +5°C° 0 mm 4 mps 755 mmHg 89%
03:00 +5°C° 0 mm 4 mps 755 mmHg 90%
04:00 +4°C° 0 mm 4 mps 755 mmHg 91%
05:00 +4°C° 0 mm 4 mps 755 mmHg 92%
06:00 +4°C° 0 mm 4 mps 755 mmHg 92%
07:00 +4°C° 0 mm 3 mps 755 mmHg 93%
08:00 +5°C° 0 mm 3 mps 755 mmHg 88%
09:00 +7°C° 0 mm 3 mps 755 mmHg 83%
10:00 +8°C° 0 mm 3 mps 755 mmHg 78%
11:00 +8°C° 0.2 mm 3 mps 754 mmHg 79%
12:00 +8°C° 0.2 mm 3 mps 754 mmHg 80%
13:00 +8°C° 0.2 mm 3 mps 753 mmHg 81%
14:00 +8°C° 1.3 mm 3 mps 753 mmHg 85%
15:00 +7°C° 1.3 mm 4 mps 752 mmHg 89%
16:00 +6°C° 1.3 mm 4 mps 752 mmHg 92%
17:00 +8°C° 1.4 mm 3 mps 752 mmHg 93%
18:00 +8°C° 1.4 mm 3 mps 752 mmHg 94%
19:00 +8°C° 1.4 mm 3 mps 752 mmHg 95%
20:00 +8°C° 0.6 mm 3 mps 752 mmHg 94%
21:00 +8°C° 0.6 mm 3 mps 753 mmHg 93%
22:00 +7°C° 0.6 mm 3 mps 753 mmHg 92%
23:00 +7°C° 0 mm 3 mps 753 mmHg 92%

31 October, Saturday

Time Temperature Precipitation Wind Pressure Humidity
00:00 +5°C° 0 mm 3 mps 754 mmHg 93%
01:00 +5°C° 0 mm 3 mps 754 mmHg 93%
02:00 +5°C° 0 mm 3 mps 755 mmHg 93%
03:00 +5°C° 0 mm 2 mps 756 mmHg 94%
04:00 +5°C° 0 mm 2 mps 756 mmHg 94%
05:00 +5°C° 0 mm 2 mps 757 mmHg 93%
06:00 +5°C° 0 mm 2 mps 757 mmHg 93%
07:00 +4°C° 0 mm 2 mps 758 mmHg 92%
08:00 +6°C° 0 mm 2 mps 758 mmHg 86%
09:00 +7°C° 0 mm 2 mps 759 mmHg 80%
10:00 +8°C° 0 mm 2 mps 759 mmHg 73%
11:00 +9°C° 0 mm 2 mps 760 mmHg 70%
12:00 +10°C° 0 mm 2 mps 760 mmHg 66%
13:00 +12°C° 0 mm 2 mps 760 mmHg 63%
14:00 +10°C° 0 mm 2 mps 760 mmHg 66%
15:00 +10°C° 0 mm 1 mps 760 mmHg 70%
16:00 +10°C° 0 mm 1 mps 760 mmHg 73%
17:00 +8°C° 0 mm 2 mps 760 mmHg 76%
18:00 +8°C° 0 mm 2 mps 760 mmHg 79%
19:00 +7°C° 0 mm 2 mps 761 mmHg 81%
20:00 +7°C° 0 mm 2 mps 760 mmHg 83%
21:00 +5°C° 0 mm 3 mps 760 mmHg 84%
22:00 +5°C° 0 mm 3 mps 760 mmHg 86%
23:00 +5°C° 0 mm 3 mps 760 mmHg 87%

1 November, Sunday

Time Temperature Precipitation Wind Pressure Humidity
00:00 +5°C° 0 mm 3 mps 760 mmHg 87%
01:00 +4°C° 0 mm 3 mps 761 mmHg 88%
02:00 +4°C° 0 mm 3 mps 760 mmHg 88%
03:00 +4°C° 0 mm 3 mps 760 mmHg 89%
04:00 +4°C° 0 mm 3 mps 760 mmHg 89%
05:00 +4°C° 0 mm 4 mps 760 mmHg 89%
06:00 +4°C° 0 mm 4 mps 759 mmHg 89%
07:00 +4°C° 0 mm 4 mps 759 mmHg 89%
08:00 +5°C° 0 mm 5 mps 759 mmHg 82%
09:00 +7°C° 0 mm 5 mps 759 mmHg 76%
10:00 +8°C° 0 mm 6 mps 759 mmHg 69%
11:00 +9°C° 0 mm 6 mps 759 mmHg 66%
12:00 +10°C° 0 mm 6 mps 758 mmHg 63%
13:00 +11°C° 0 mm 6 mps 758 mmHg 60%
14:00 +12°C° 0 mm 5 mps 758 mmHg 63%
15:00 +10°C° 0 mm 5 mps 757 mmHg 66%
16:00 +9°C° 0 mm 5 mps 757 mmHg 69%
17:00 +9°C° 0 mm 5 mps 757 mmHg 71%
18:00 +8°C° 0 mm 5 mps 757 mmHg 72%
19:00 +8°C° 0 mm 5 mps 757 mmHg 74%
20:00 +8°C° 0 mm 5 mps 757 mmHg 74%
21:00 +8°C° 0 mm 5 mps 757 mmHg 75%
22:00 +8°C° 0 mm 5 mps 757 mmHg 75%
23:00 +7°C° 0 mm 5 mps 757 mmHg 76%

2 November, Monday

Time Temperature Precipitation Wind Pressure Humidity
00:00 +7°C° 0 mm 4 mps 757 mmHg 78%
01:00 +7°C° 0 mm 4 mps 757 mmHg 79%
02:00 +7°C° 0 mm 4 mps 757 mmHg 80%
03:00 +6°C° 0 mm 4 mps 756 mmHg 81%
04:00 +6°C° 0 mm 4 mps 756 mmHg 82%
05:00 +6°C° 0 mm 4 mps 756 mmHg 81%
06:00 +7°C° 0 mm 4 mps 757 mmHg 81%
07:00 +7°C° 0 mm 4 mps 757 mmHg 80%
08:00 +8°C° 0 mm 4 mps 757 mmHg 77%
09:00 +10°C° 0 mm 4 mps 757 mmHg 74%
10:00 +11°C° 0 mm 4 mps 757 mmHg 72%
11:00 +12°C° 0 mm 4 mps 757 mmHg 70%
12:00 +13°C° 0 mm 4 mps 757 mmHg 67%
13:00 +13°C° 0 mm 4 mps 757 mmHg 65%
14:00 +13°C° 0 mm 4 mps 756 mmHg 68%
15:00 +13°C° 0 mm 4 mps 756 mmHg 70%
16:00 +12°C° 0 mm 3 mps 756 mmHg 73%
17:00 +12°C° 0 mm 3 mps 756 mmHg 74%
18:00 +11°C° 0 mm 3 mps 757 mmHg 75%
19:00 +11°C° 0 mm 4 mps 757 mmHg 76%
20:00 +11°C° 0 mm 3 mps 757 mmHg 76%
21:00 +11°C° 0 mm 3 mps 757 mmHg 76%
22:00 +10°C° 0 mm 3 mps 757 mmHg 77%
23:00 +10°C° 0 mm 3 mps 757 mmHg 77%
Show more